Total_Precipitation_Accumulation
0.97 0.88 0.88 1.02 0.98 0.98 1.08 1.16 1.03 0.95 0.96 0.94 0.89 0.84 0.79 0.71 0.70 0.62 0.70 0.78 0.90 1.17 1.53 1.55 1.30 1.02 1.01 1.23 1.25 1.23 1.21 1.32 1.61 1.77 1.69 1.62 1.66 1.68 1.41 1.15 0.97 0.87 0.77
1.02 1.03 0.92 1.00 1.14 1.15 1.12 1.11 1.09 0.99 0.95 0.97 0.94 0.94 0.91 0.76 0.74 0.73 0.77 0.75 0.69 0.79 1.19 1.55 1.43 1.23 1.22 1.33 1.29 1.27 1.22 1.26 1.48 1.66 1.77 1.64 1.74 1.83 1.48 1.15 1.01 0.90 0.87
1.03 1.04 0.92 0.95 1.09 1.26 1.22 1.14 1.07 1.04 0.90 0.86 0.93 0.98 0.98 0.87 0.82 0.87 0.83 0.81 0.67 0.69 0.94 1.39 1.57 1.43 1.43 1.61 1.42 1.29 1.22 1.23 1.26 1.46 1.72 1.73 1.69 1.74 1.46 1.18 1.00 0.96 0.93
1.04 1.12 1.03 0.98 1.13 1.31 1.45 1.46 1.28 1.18 1.06 0.98 1.02 1.01 0.96 0.99 0.95 0.90 0.87 0.90 0.85 0.74 0.80 0.99 1.33 1.62 1.69 1.82 1.60 1.40 1.22 1.10 1.04 1.18 1.37 1.52 1.55 1.52 1.43 1.28 1.10 1.05 1.02
0.96 1.17 1.24 1.19 1.22 1.37 1.42 1.43 1.41 1.25 1.22 1.18 1.05 0.99 0.93 0.98 1.04 0.88 0.89 0.94 1.00 0.90 0.85 0.71 0.81 1.05 1.38 1.85 1.89 1.54 1.34 1.15 0.99 1.01 1.14 1.20 1.29 1.33 1.36 1.32 1.15 1.07 1.10
1.18 1.34 1.42 1.40 1.40 1.46 1.42 1.53 1.68 1.46 1.29 1.31 1.20 1.06 0.97 0.97 1.00 1.00 1.01 1.00 1.07 1.03 0.95 0.78 0.72 0.60 0.80 1.35 1.81 1.60 1.56 1.38 1.10 1.01 1.09 1.09 1.09 1.16 1.17 1.27 1.26 1.13 1.09
1.40 1.54 1.64 1.65 1.58 1.49 1.53 1.69 2.02 1.91 1.55 1.38 1.43 1.30 1.13 1.05 1.10 1.05 1.06 1.12 1.07 1.06 1.11 1.00 0.84 0.77 0.67 0.72 1.15 1.55 1.59 1.61 1.42 1.22 1.14 1.15 1.06 1.05 1.03 1.05 1.22 1.21 1.11
1.50 1.58 1.78 1.89 1.82 1.78 1.86 1.87 2.06 2.19 1.95 1.72 1.69 1.87 1.65 1.43 1.12 0.91 0.94 1.00 1.05 1.14 1.12 1.14 1.04 0.93 0.89 0.80 0.67 1.01 1.32 1.47 1.60 1.46 1.33 1.27 1.12 1.01 0.99 0.96 1.02 1.25 1.21
1.70 1.67 1.79 1.99 1.94 1.88 1.89 2.06 2.29 2.53 2.48 2.25 2.02 2.11 1.86 1.66 1.53 1.04 0.83 0.90 1.00 1.13 1.16 1.22 1.20 1.09 1.05 1.09 0.86 0.69 0.86 1.13 1.50 1.58 1.53 1.39 1.26 1.12 1.09 1.03 0.99 1.15 1.29
1.62 1.62 1.74 1.94 2.07 2.14 2.17 2.24 2.23 2.50 2.69 2.54 2.44 2.15 1.87 1.74 1.81 1.56 1.09 0.87 0.94 1.01 1.06 1.09 1.17 1.21 1.19 1.19 1.08 0.71 0.62 0.74 1.17 1.60 1.71 1.56 1.35 1.22 1.16 1.12 1.04 1.08 1.21
1.71 1.62 1.66 1.75 1.79 1.86 1.97 2.10 2.18 2.37 2.48 2.61 2.60 2.43 2.20 2.04 1.60 1.57 1.56 1.29 1.06 0.88 0.91 1.02 1.18 1.25 1.25 1.21 1.23 0.89 0.65 0.51 0.67 1.18 1.64 1.84 1.66 1.44 1.31 1.16 1.05 1.04 1.08
1.68 1.59 1.54 1.64 1.67 1.67 1.79 1.91 2.00 2.21 2.36 2.47 2.54 2.42 2.28 2.21 1.96 1.70 1.54 1.51 1.40 1.10 0.93 0.92 1.01 1.12 1.19 1.19 1.12 1.08 0.83 0.57 0.50 0.74 1.10 1.53 1.72 1.66 1.55 1.42 1.30 1.18 1.18
1.31 1.31 1.24 1.30 1.43 1.48 1.66 1.73 1.67 1.73 1.88 2.08 2.24 2.27 2.23 2.12 2.11 2.02 1.86 1.71 1.52 1.20 1.06 0.92 0.86 1.00 1.09 1.22 1.23 1.30 0.94 0.70 0.56 0.57 0.69 0.92 1.17 1.37 1.54 1.61 1.66 1.63 1.56
1.01 0.97 0.97 0.98 1.04 1.13 1.34 1.55 1.54 1.55 1.61 1.69 1.78 2.03 2.12 2.06 2.09 1.94 1.80 1.82 1.63 1.37 1.18 0.93 0.78 0.79 0.90 1.05 1.37 1.48 0.98 0.83 0.67 0.62 0.65 0.68 0.75 0.88 1.14 1.38 1.55 1.72 1.77
0.78 0.76 0.78 0.86 0.92 0.91 1.02 1.15 1.33 1.41 1.46 1.53 1.57 1.72 1.81 1.86 1.84 1.72 1.72 1.74 1.65 1.42 1.25 1.09 0.96 0.86 0.86 0.94 1.25 1.19 1.02 0.96 0.85 0.76 0.71 0.67 0.67 0.69 0.80 0.94 1.10 1.27 1.35
0.71 0.70 0.67 0.68 0.74 0.77 0.87 0.98 1.03 1.14 1.21 1.37 1.54 1.66 1.67 1.71 1.74 1.65 1.61 1.69 1.67 1.48 1.28 1.10 0.96 0.90 1.00 0.98 1.17 1.05 1.12 1.21 0.94 0.81 0.75 0.75 0.68 0.61 0.55 0.56 0.63 0.75 0.82
0.55 0.56 0.59 0.65 0.65 0.67 0.69 0.70 0.75 0.81 0.88 0.99 1.04 1.15 1.37 1.57 1.62 1.61 1.64 1.68 1.69 1.57 1.35 1.22 1.00 0.97 1.12 1.13 1.13 1.07 1.15 1.20 0.98 0.86 0.72 0.68 0.68 0.62 0.59 0.53 0.50 0.52 0.57
0.47 0.49 0.54 0.58 0.58 0.64 0.66 0.66 0.65 0.68 0.77 0.85 0.85 0.85 0.95 1.18 1.34 1.45 1.51 1.54 1.60 1.61 1.49 1.45 1.33 1.10 1.06 1.13 1.25 1.32 1.26 1.23 1.19 1.14 1.00 0.80 0.72 0.67 0.63 0.58 0.50 0.45 0.46
0.59 0.62 0.61 0.64 0.62 0.64 0.64 0.65 0.68 0.69 0.72 0.76 0.79 0.81 0.87 0.97 1.12 1.21 1.31 1.41 1.50 1.62 1.61 1.44 1.46 1.39 1.20 1.18 1.23 1.31 1.37 1.46 1.34 1.28 1.32 1.15 0.93 0.83 0.76 0.70 0.60 0.52 0.49
0.51 0.54 0.63 0.71 0.79 0.83 0.82 0.78 0.77 0.74 0.70 0.71 0.77 0.84 0.86 0.87 0.99 1.20 1.33 1.40 1.43 1.53 1.65 1.59 1.52 1.49 1.34 1.27 1.27 1.29 1.42 1.52 1.52 1.32 1.23 1.20 1.14 1.01 0.88 0.80 0.72 0.63 0.60
0.44 0.45 0.53 0.62 0.72 0.81 0.86 0.86 0.72 0.61 0.62 0.67 0.67 0.68 0.76 0.83 0.86 1.00 1.17 1.40 1.42 1.52 1.59 1.66 1.58 1.44 1.32 1.23 1.19 1.20 1.29 1.48 1.54 1.52 1.45 1.27 1.15 0.99 0.87 0.83 0.81 0.77 0.70
0.38 0.40 0.44 0.42 0.45 0.50 0.66 0.66 0.54 0.45 0.50 0.60 0.67 0.69 0.69 0.70 0.72 0.76 0.80 1.05 1.24 1.36 1.45 1.47 1.52 1.39 1.27 1.20 1.28 1.28 1.22 1.28 1.39 1.42 1.33 1.39 1.36 1.17 1.02 0.90 0.95 0.99 0.94
0.34 0.36 0.32 0.28 0.30 0.34 0.39 0.38 0.43 0.45 0.48 0.52 0.61 0.70 0.74 0.72 0.78 0.86 0.82 0.86 0.95 1.03 1.14 1.26 1.30 1.24 1.21 1.16 1.24 1.28 1.25 1.20 1.12 1.21 1.22 1.29 1.35 1.24 1.11 1.00 0.99 0.96 0.94
0.29 0.36 0.31 0.29 0.33 0.30 0.32 0.37 0.40 0.43 0.56 0.62 0.61 0.62 0.73 0.79 0.84 0.99 0.98 1.06 0.99 0.89 0.87 0.92 1.06 1.12 1.07 1.17 1.26 1.42 1.47 1.34 1.24 1.27 1.25 1.18 1.14 1.09 1.02 1.02 1.02 0.89 0.84
0.20 0.19 0.23 0.37 0.38 0.34 0.42 0.40 0.35 0.42 0.55 0.62 0.58 0.61 0.73 0.83 0.97 1.07 1.11 1.14 1.04 0.94 0.97 1.05 1.13 1.19 1.21 1.27 1.34 1.40 1.45 1.43 1.34 1.32 1.22 1.09 1.00 0.99 1.00 0.97 0.94 0.94 0.89
0.10 0.10 0.14 0.27 0.34 0.36 0.36 0.28 0.28 0.40 0.53 0.61 0.62 0.63 0.85 0.86 0.94 0.99 1.05 1.17 1.19 1.05 0.98 1.00 1.06 1.08 1.08 1.16 1.35 1.37 1.47 1.53 1.39 1.31 1.21 1.06 1.01 1.12 1.18 1.05 0.91 0.86 0.85